Time,TemperatureF,DewpointF,PressureIn,WindDirection,WindDirectionDegrees,WindSpeedMPH,WindSpeedGustMPH,Humidity,HourlyPrecipIn,Conditions,Clouds,dailyrainin,SoftwareType,DateUTC
2013-05-06 00:02:00,47.0,38.0,30.23,SE,128,0.0,-999.0,70,-99.99,,,-99.99,,2013-05-06 04:02:00,
2013-05-06 00:12:00,47.0,38.0,30.23,SE,128,0.0,-999.0,70,-99.99,,,-99.99,,2013-05-06 04:12:00,
2013-05-06 00:23:00,46.0,37.0,30.22,ESE,106,0.0,-999.0,71,-99.99,,,-99.99,,2013-05-06 04:23:00,
2013-05-06 00:32:00,46.0,37.0,30.22,ESE,106,0.0,-999.0,71,-99.99,,,-99.99,,2013-05-06 04:32:00,
2013-05-06 00:43:00,46.0,37.0,30.22,ESE,106,0.0,-999.0,71,-99.99,,,-99.99,,2013-05-06 04:43:00,
2013-05-06 00:53:00,45.0,37.0,30.22,North,360,0.0,-999.0,74,-99.99,,,-99.99,,2013-05-06 04:53:00,
2013-05-06 01:02:00,45.0,38.0,30.22,North,360,0.0,-999.0,76,-99.99,,,-99.99,,2013-05-06 05:02:00,
2013-05-06 01:12:00,45.0,38.0,30.22,North,360,0.0,-999.0,76,-99.99,,,-99.99,,2013-05-06 05:12:00,
2013-05-06 01:22:00,44.0,38.0,30.22,North,360,0.0,-999.0,78,-99.99,,,-99.99,,2013-05-06 05:22:00,
2013-05-06 01:32:00,43.0,37.0,30.21,North,4,0.0,-999.0,79,-99.99,,,-99.99,,2013-05-06 05:32:00,
2013-05-06 01:42:00,43.0,37.0,30.21,North,4,0.0,-999.0,79,-99.99,,,-99.99,,2013-05-06 05:42:00,
2013-05-06 01:52:00,43.0,38.0,30.21,NE,42,0.0,-999.0,81,-99.99,,,-99.99,,2013-05-06 05:52:00,
2013-05-06 02:02:00,42.0,37.0,30.21,NE,42,0.0,-999.0,82,-99.99,,,-99.99,,2013-05-06 06:02:00,
2013-05-06 02:12:00,42.0,37.0,30.21,NE,42,0.0,-999.0,82,-99.99,,,-99.99,,2013-05-06 06:12:00,
2013-05-06 02:21:00,42.0,38.0,30.21,NE,42,0.0,-999.0,84,-99.99,,,-99.99,,2013-05-06 06:21:00,
2013-05-06 02:32:00,42.0,38.0,30.20,SSE,167,0.0,-999.0,85,-99.99,,,-99.99,,2013-05-06 06:32:00,
2013-05-06 02:42:00,42.0,38.0,30.20,SSE,167,0.0,-999.0,85,-99.99,,,-99.99,,2013-05-06 06:42:00,
2013-05-06 02:52:00,42.0,38.0,30.19,SSE,167,0.0,-999.0,86,-99.99,,,-99.99,,2013-05-06 06:52:00,
2013-05-06 03:01:00,42.0,38.0,30.19,SSE,167,0.0,-999.0,86,-99.99,,,-99.99,,2013-05-06 07:01:00,
2013-05-06 03:11:00,42.0,38.0,30.19,SSE,167,0.0,-999.0,86,-99.99,,,-99.99,,2013-05-06 07:11:00,
2013-05-06 03:22:00,42.0,38.0,30.19,SSE,167,0.0,-999.0,86,-99.99,,,-99.99,,2013-05-06 07:22:00,
2013-05-06 03:32:00,41.0,37.0,30.19,SSE,167,0.0,-999.0,87,-99.99,,,-99.99,,2013-05-06 07:32:00,
2013-05-06 03:42:00,41.0,37.0,30.19,SSE,167,0.0,-999.0,87,-99.99,,,-99.99,,2013-05-06 07:42:00,
2013-05-06 03:52:00,41.0,38.0,30.19,SSE,167,0.0,-999.0,88,-99.99,,,-99.99,,2013-05-06 07:52:00,
2013-05-06 04:02:00,40.0,37.0,30.19,SSE,167,0.0,-999.0,88,-99.99,,,-99.99,,2013-05-06 08:02:00,
2013-05-06 04:12:00,40.0,37.0,30.19,SSE,167,0.0,-999.0,88,-99.99,,,-99.99,,2013-05-06 08:12:00,
2013-05-06 04:22:00,40.0,37.0,30.19,SSE,167,0.0,-999.0,89,-99.99,,,-99.99,,2013-05-06 08:22:00,
2013-05-06 04:32:00,40.0,38.0,30.20,SSE,167,0.0,-999.0,91,-99.99,,,-99.99,,2013-05-06 08:32:00,
2013-05-06 04:42:00,40.0,38.0,30.20,SSE,167,0.0,-999.0,91,-99.99,,,-99.99,,2013-05-06 08:42:00,
2013-05-06 04:52:00,40.0,37.0,30.20,SSE,167,0.0,-999.0,90,-99.99,,,-99.99,,2013-05-06 08:52:00,
2013-05-06 05:01:00,40.0,38.0,30.20,SSE,167,0.0,-999.0,91,-99.99,,,-99.99,,2013-05-06 09:01:00,
2013-05-06 05:11:00,40.0,38.0,30.20,SSE,167,0.0,-999.0,91,-99.99,,,-99.99,,2013-05-06 09:11:00,
2013-05-06 05:22:00,40.0,38.0,30.20,SSE,167,0.0,-999.0,92,-99.99,,,-99.99,,2013-05-06 09:22:00,
2013-05-06 05:33:00,40.0,38.0,30.17,SSE,167,0.0,-999.0,93,-99.99,,,-99.99,,2013-05-06 09:33:00,
2013-05-06 05:43:00,40.0,38.0,30.17,SSE,167,0.0,-999.0,93,-99.99,,,-99.99,,2013-05-06 09:43:00,
2013-05-06 05:53:00,40.0,38.0,30.17,SSE,167,0.0,-999.0,92,-99.99,,,-99.99,,2013-05-06 09:53:00,
2013-05-06 06:02:00,39.0,37.0,30.17,SSE,167,0.0,-999.0,92,-99.99,,,-99.99,,2013-05-06 10:02:00,
2013-05-06 06:12:00,39.0,37.0,30.17,SSE,167,0.0,-999.0,92,-99.99,,,-99.99,,2013-05-06 10:12:00,
2013-05-06 06:22:00,39.0,37.0,30.18,SSE,167,0.0,-999.0,93,-99.99,,,-99.99,,2013-05-06 10:22:00,
2013-05-06 06:33:00,39.0,37.0,30.19,SSE,167,0.0,-999.0,93,-99.99,,,-99.99,,2013-05-06 10:33:00,
2013-05-06 06:42:00,39.0,37.0,30.19,SSE,167,0.0,-999.0,93,-99.99,,,-99.99,,2013-05-06 10:42:00,
2013-05-06 06:52:00,39.0,37.0,30.19,SSE,167,0.0,-999.0,94,-99.99,,,-99.99,,2013-05-06 10:52:00,
2013-05-06 07:02:00,40.0,38.0,30.19,SSE,167,0.0,-999.0,93,-99.99,,,-99.99,,2013-05-06 11:02:00,
2013-05-06 07:12:00,40.0,38.0,30.19,SSE,167,0.0,-999.0,93,-99.99,,,-99.99,,2013-05-06 11:12:00,
2013-05-06 07:22:00,41.0,39.0,30.19,SSE,168,0.0,-999.0,92,-99.99,,,-99.99,,2013-05-06 11:22:00,
2013-05-06 07:32:00,42.0,40.0,30.20,SW,236,0.0,-999.0,91,-99.99,,,-99.99,,2013-05-06 11:32:00,
2013-05-06 07:42:00,42.0,40.0,30.20,SW,236,0.0,-999.0,91,-99.99,,,-99.99,,2013-05-06 11:42:00,
2013-05-06 07:52:00,43.0,40.0,30.20,SW,233,0.0,-999.0,88,-99.99,,,-99.99,,2013-05-06 11:52:00,
2013-05-06 08:01:00,44.0,40.0,30.20,SW,217,0.0,-999.0,85,-99.99,,,-99.99,,2013-05-06 12:01:00,
2013-05-06 08:12:00,44.0,40.0,30.20,SW,217,0.0,-999.0,85,-99.99,,,-99.99,,2013-05-06 12:12:00,
2013-05-06 08:21:00,46.0,41.0,30.21,SW,223,1.0,-999.0,82,-99.99,,,-99.99,,2013-05-06 12:21:00,
2013-05-06 08:32:00,49.0,42.0,30.21,West,265,0.0,-999.0,76,-99.99,,,-99.99,,2013-05-06 12:32:00,
2013-05-06 08:42:00,49.0,42.0,30.21,West,265,0.0,-999.0,76,-99.99,,,-99.99,,2013-05-06 12:42:00,
2013-05-06 08:52:00,50.0,41.0,30.21,SW,217,0.0,-999.0,72,-99.99,,,-99.99,,2013-05-06 12:52:00,
2013-05-06 09:01:00,52.0,42.0,30.22,SSW,196,1.0,-999.0,69,-99.99,,,-99.99,,2013-05-06 13:01:00,
2013-05-06 09:11:00,52.0,42.0,30.22,SSW,196,1.0,-999.0,69,-99.99,,,-99.99,,2013-05-06 13:11:00,
2013-05-06 09:21:00,53.0,43.0,30.21,WSW,250,1.0,-999.0,68,-99.99,,,-99.99,,2013-05-06 13:21:00,
2013-05-06 09:32:00,53.0,42.0,30.22,WSW,239,1.0,-999.0,66,-99.99,,,-99.99,,2013-05-06 13:32:00,
2013-05-06 09:42:00,53.0,42.0,30.22,WSW,239,1.0,-999.0,66,-99.99,,,-99.99,,2013-05-06 13:42:00,
2013-05-06 09:52:00,54.0,42.0,30.22,East,96,0.0,-999.0,64,-99.99,,,-99.99,,2013-05-06 13:52:00,
2013-05-06 10:01:00,56.0,43.0,30.22,NE,48,0.0,-999.0,62,-99.99,,,-99.99,,2013-05-06 14:01:00,
2013-05-06 10:11:00,56.0,43.0,30.22,NE,48,0.0,-999.0,62,-99.99,,,-99.99,,2013-05-06 14:11:00,
2013-05-06 10:21:00,56.0,42.0,30.21,SSW,200,0.0,-999.0,59,-99.99,,,-99.99,,2013-05-06 14:21:00,
2013-05-06 10:32:00,57.0,41.0,30.21,East,89,0.0,-999.0,56,-99.99,,,-99.99,,2013-05-06 14:32:00,
2013-05-06 10:42:00,57.0,41.0,30.21,East,89,0.0,-999.0,56,-99.99,,,-99.99,,2013-05-06 14:42:00,
2013-05-06 10:52:00,58.0,37.0,30.21,WSW,254,0.0,-999.0,46,-99.99,,,-99.99,,2013-05-06 14:52:00,
2013-05-06 11:01:00,59.0,40.0,30.21,SSW,192,0.0,-999.0,49,-99.99,,,-99.99,,2013-05-06 15:01:00,
2013-05-06 11:11:00,59.0,40.0,30.21,SSW,192,0.0,-999.0,49,-99.99,,,-99.99,,2013-05-06 15:11:00,
2013-05-06 11:21:00,60.0,40.0,30.21,North,360,0.0,-999.0,47,-99.99,,,-99.99,,2013-05-06 15:21:00,
2013-05-06 11:33:00,62.0,37.0,30.20,SSW,205,0.0,-999.0,39,-99.99,,,-99.99,,2013-05-06 15:33:00,
2013-05-06 11:42:00,62.0,37.0,30.20,SSW,205,0.0,-999.0,39,-99.99,,,-99.99,,2013-05-06 15:42:00,
2013-05-06 11:53:00,63.0,35.0,30.20,West,261,0.0,-999.0,35,-99.99,,,-99.99,,2013-05-06 15:53:00,
2013-05-06 12:03:00,65.0,38.0,30.22,NW,323,0.0,-999.0,37,-99.99,,,-99.99,,2013-05-06 16:03:00,
2013-05-06 12:13:00,65.0,38.0,30.22,NW,323,0.0,-999.0,37,-99.99,,,-99.99,,2013-05-06 16:13:00,
2013-05-06 12:23:00,67.0,36.0,30.21,South,174,0.0,-999.0,32,-99.99,,,-99.99,,2013-05-06 16:23:00,
2013-05-06 12:33:00,68.0,35.0,30.19,WSW,258,1.0,-999.0,30,-99.99,,,-99.99,,2013-05-06 16:33:00,
2013-05-06 12:42:00,68.0,35.0,30.19,WSW,258,1.0,-999.0,30,-99.99,,,-99.99,,2013-05-06 16:42:00,
2013-05-06 12:52:00,69.0,35.0,30.21,SSW,208,0.0,-999.0,29,-99.99,,,-99.99,,2013-05-06 16:52:00,
2013-05-06 13:03:00,70.0,34.0,30.20,WNW,296,0.0,-999.0,27,-99.99,,,-99.99,,2013-05-06 17:03:00,
2013-05-06 13:12:00,70.0,34.0,30.20,WNW,296,0.0,-999.0,27,-99.99,,,-99.99,,2013-05-06 17:12:00,
2013-05-06 13:23:00,70.0,34.0,30.19,SSE,160,0.0,-999.0,26,-99.99,,,-99.99,,2013-05-06 17:23:00,
2013-05-06 13:31:00,71.0,35.0,30.19,West,267,0.0,-999.0,27,-99.99,,,-99.99,,2013-05-06 17:31:00,
2013-05-06 13:42:00,71.0,35.0,30.19,West,267,0.0,-999.0,27,-99.99,,,-99.99,,2013-05-06 17:42:00,
2013-05-06 13:52:00,71.0,33.0,30.18,SW,230,1.0,-999.0,25,-99.99,,,-99.99,,2013-05-06 17:52:00,
2013-05-06 14:01:00,73.0,35.0,30.18,NNW,343,1.0,-999.0,25,-99.99,,,-99.99,,2013-05-06 18:01:00,
2013-05-06 14:12:00,73.0,35.0,30.18,NNW,343,1.0,-999.0,25,-99.99,,,-99.99,,2013-05-06 18:12:00,
2013-05-06 14:22:00,74.0,30.0,30.18,SSE,150,0.0,-999.0,20,-99.99,,,-99.99,,2013-05-06 18:22:00,
2013-05-06 14:32:00,74.0,25.0,30.17,SW,215,1.0,-999.0,16,-99.99,,,-99.99,,2013-05-06 18:32:00,
2013-05-06 14:43:00,74.0,25.0,30.17,SW,215,1.0,-999.0,16,-99.99,,,-99.99,,2013-05-06 18:43:00,
2013-05-06 14:52:00,74.0,26.0,30.17,ENE,66,1.0,-999.0,17,-99.99,,,-99.99,,2013-05-06 18:52:00,
2013-05-06 15:01:00,74.0,23.0,30.16,ESE,116,0.0,-999.0,15,-99.99,,,-99.99,,2013-05-06 19:01:00,
2013-05-06 15:11:00,74.0,23.0,30.16,ESE,116,0.0,-999.0,15,-99.99,,,-99.99,,2013-05-06 19:11:00,
2013-05-06 15:22:00,76.0,27.0,30.15,East,97,0.0,-999.0,16,-99.99,,,-99.99,,2013-05-06 19:22:00,
2013-05-06 15:32:00,75.0,24.0,30.15,East,99,0.0,-999.0,15,-99.99,,,-99.99,,2013-05-06 19:32:00,
2013-05-06 15:41:00,75.0,24.0,30.15,East,99,0.0,-999.0,15,-99.99,,,-99.99,,2013-05-06 19:41:00,
2013-05-06 15:52:00,76.0,28.0,30.15,NE,49,0.0,-999.0,17,-99.99,,,-99.99,,2013-05-06 19:52:00,
2013-05-06 16:02:00,76.0,27.0,30.14,SW,222,1.0,-999.0,16,-99.99,,,-99.99,,2013-05-06 20:02:00,
2013-05-06 16:11:00,76.0,27.0,30.14,SW,222,1.0,-999.0,16,-99.99,,,-99.99,,2013-05-06 20:11:00,
2013-05-06 16:21:00,77.0,29.0,30.14,SW,236,0.0,-999.0,17,-99.99,,,-99.99,,2013-05-06 20:21:00,
2013-05-06 16:32:00,75.0,27.0,30.13,SW,222,0.0,-999.0,17,-99.99,,,-99.99,,2013-05-06 20:32:00,
2013-05-06 16:42:00,75.0,27.0,30.13,SW,222,0.0,-999.0,17,-99.99,,,-99.99,,2013-05-06 20:42:00,
2013-05-06 16:52:00,75.0,26.0,30.13,ESE,110,0.0,-999.0,16,-99.99,,,-99.99,,2013-05-06 20:52:00,
2013-05-06 17:01:00,74.0,28.0,30.13,East,92,0.0,-999.0,18,-99.99,,,-99.99,,2013-05-06 21:01:00,
2013-05-06 17:11:00,74.0,28.0,30.13,East,92,0.0,-999.0,18,-99.99,,,-99.99,,2013-05-06 21:11:00,
2013-05-06 17:21:00,73.0,27.0,30.12,East,80,0.0,-999.0,18,-99.99,,,-99.99,,2013-05-06 21:21:00,
2013-05-06 17:33:00,73.0,28.0,30.12,SE,124,0.0,-999.0,19,-99.99,,,-99.99,,2013-05-06 21:33:00,
2013-05-06 17:43:00,73.0,28.0,30.12,SE,124,0.0,-999.0,19,-99.99,,,-99.99,,2013-05-06 21:43:00,
2013-05-06 17:53:00,72.0,30.0,30.09,South,185,0.0,-999.0,21,-99.99,,,-99.99,,2013-05-06 21:53:00,
2013-05-06 18:03:00,72.0,32.0,30.09,SSW,212,0.0,-999.0,23,-99.99,,,-99.99,,2013-05-06 22:03:00,
2013-05-06 18:12:00,72.0,32.0,30.09,SSW,212,0.0,-999.0,23,-99.99,,,-99.99,,2013-05-06 22:12:00,
2013-05-06 18:22:00,72.0,33.0,30.09,South,185,0.0,-999.0,24,-99.99,,,-99.99,,2013-05-06 22:22:00,
2013-05-06 18:33:00,71.0,33.0,30.11,SW,226,0.0,-999.0,25,-99.99,,,-99.99,,2013-05-06 22:33:00,
2013-05-06 18:45:00,71.0,33.0,30.11,SW,226,0.0,-999.0,25,-99.99,,,-99.99,,2013-05-06 22:45:00,
2013-05-06 18:52:00,71.0,35.0,30.11,SSW,199,1.0,-999.0,27,-99.99,,,-99.99,,2013-05-06 22:52:00,
2013-05-06 19:03:00,70.0,34.0,30.08,SSE,160,0.0,-999.0,27,-99.99,,,-99.99,,2013-05-06 23:03:00,
2013-05-06 19:12:00,70.0,34.0,30.08,SSE,160,0.0,-999.0,27,-99.99,,,-99.99,,2013-05-06 23:12:00,
2013-05-06 19:22:00,69.0,33.0,30.08,SSE,158,0.0,-999.0,26,-99.99,,,-99.99,,2013-05-06 23:22:00,
2013-05-06 19:32:00,68.0,34.0,30.11,SW,224,0.0,-999.0,28,-99.99,,,-99.99,,2013-05-06 23:32:00,
2013-05-06 19:42:00,68.0,34.0,30.11,SW,224,0.0,-999.0,28,-99.99,,,-99.99,,2013-05-06 23:42:00,
2013-05-06 19:52:00,67.0,34.0,30.11,SW,224,0.0,-999.0,29,-99.99,,,-99.99,,2013-05-06 23:52:00,
2013-05-06 20:01:00,66.0,33.0,30.09,SW,227,0.0,-999.0,29,-99.99,,,-99.99,,2013-05-07 00:01:00,
2013-05-06 20:11:00,66.0,33.0,30.09,SW,227,0.0,-999.0,29,-99.99,,,-99.99,,2013-05-07 00:11:00,
2013-05-06 20:21:00,64.0,34.0,30.09,SW,227,0.0,-999.0,32,-99.99,,,-99.99,,2013-05-07 00:21:00,
2013-05-06 20:32:00,62.0,32.0,30.11,SW,227,0.0,-999.0,32,-99.99,,,-99.99,,2013-05-07 00:32:00,
2013-05-06 20:42:00,62.0,32.0,30.11,SW,227,0.0,-999.0,32,-99.99,,,-99.99,,2013-05-07 00:42:00,
2013-05-06 20:52:00,60.0,34.0,30.12,SW,227,0.0,-999.0,38,-99.99,,,-99.99,,2013-05-07 00:52:00,
2013-05-06 21:01:00,59.0,36.0,30.12,SW,236,0.0,-999.0,42,-99.99,,,-99.99,,2013-05-07 01:01:00,
2013-05-06 21:11:00,59.0,36.0,30.12,SW,236,0.0,-999.0,42,-99.99,,,-99.99,,2013-05-07 01:11:00,
2013-05-06 21:21:00,59.0,38.0,30.13,SW,236,0.0,-999.0,45,-99.99,,,-99.99,,2013-05-07 01:21:00,
2013-05-06 21:32:00,58.0,37.0,30.13,SW,236,0.0,-999.0,45,-99.99,,,-99.99,,2013-05-07 01:32:00,
2013-05-06 21:42:00,58.0,37.0,30.13,SW,236,0.0,-999.0,45,-99.99,,,-99.99,,2013-05-07 01:42:00,
2013-05-06 21:53:00,58.0,37.0,30.13,SW,234,0.0,-999.0,45,-99.99,,,-99.99,,2013-05-07 01:53:00,
2013-05-06 22:02:00,57.0,37.0,30.14,SE,145,0.0,-999.0,47,-99.99,,,-99.99,,2013-05-07 02:02:00,
2013-05-06 22:11:00,57.0,37.0,30.14,SE,145,0.0,-999.0,47,-99.99,,,-99.99,,2013-05-07 02:11:00,
2013-05-06 22:22:00,57.0,37.0,30.14,SE,143,0.0,-999.0,47,-99.99,,,-99.99,,2013-05-07 02:22:00,
2013-05-06 22:32:00,57.0,38.0,30.14,SE,141,0.0,-999.0,48,-99.99,,,-99.99,,2013-05-07 02:32:00,
2013-05-06 22:42:00,57.0,38.0,30.14,SE,141,0.0,-999.0,48,-99.99,,,-99.99,,2013-05-07 02:42:00,
2013-05-06 22:52:00,56.0,39.0,30.14,SW,222,0.0,-999.0,53,-99.99,,,-99.99,,2013-05-07 02:52:00,
2013-05-06 23:02:00,56.0,42.0,30.14,SW,224,0.0,-999.0,59,-99.99,,,-99.99,,2013-05-07 03:02:00,
2013-05-06 23:11:00,56.0,42.0,30.14,SW,224,0.0,-999.0,59,-99.99,,,-99.99,,2013-05-07 03:11:00,
2013-05-06 23:22:00,55.0,43.0,30.14,South,186,0.0,-999.0,64,-99.99,,,-99.99,,2013-05-07 03:22:00,
2013-05-06 23:32:00,56.0,46.0,30.13,SSE,165,0.0,-999.0,68,-99.99,,,-99.99,,2013-05-07 03:32:00,
2013-05-06 23:42:00,56.0,46.0,30.13,SSE,165,0.0,-999.0,68,-99.99,,,-99.99,,2013-05-07 03:42:00,
2013-05-06 23:53:00,55.0,46.0,30.13,ESE,117,0.0,-999.0,72,-99.99,,,-99.99,,2013-05-07 03:53:00,